When you browse on this site, cookies collect data to enhance your experience and personalize the content and advertising you see.
Visit our Privacy Policy to learn more. By continuing to use the site, you agree to this use of cookies and data.
  • In Österreich
  • Länderverzeichnis
  • Für 7 Tage
  • Wassertemperatur
  • Satellitenkarten
  • Wetterkarte
  • News
  • Widgets
  • user-avatar
    Anmelden

    Stündliche Wetter Eisenstadt

    Heute, 26 Mai, Sonntag

    Zeit Temperatur Niederschläge Wind Luftdruck Luftfeuchtigkeit
    00:00 +15°C° 0.8 mm 1 m/S 721 mmHg 86%
    01:00 +15°C° 0.8 mm 1 m/S 721 mmHg 88%
    02:00 +14°C° 0.1 mm 1 m/S 721 mmHg 89%
    03:00 +14°C° 0.1 mm 1 m/S 721 mmHg 89%
    04:00 +13°C° 0.1 mm 1 m/S 721 mmHg 90%
    05:00 +14°C° 0 mm 1 m/S 721 mmHg 87%
    06:00 +16°C° 0 mm 1 m/S 721 mmHg 84%
    07:00 +18°C° 0 mm 1 m/S 722 mmHg 81%
    08:00 +19°C° 0 mm 1 m/S 722 mmHg 75%
    09:00 +21°C° 0 mm 1 m/S 722 mmHg 69%
    10:00 +22°C° 0 mm 1 m/S 722 mmHg 63%
    11:00 +23°C° 0.3 mm 2 m/S 722 mmHg 61%
    12:00 +23°C° 0.3 mm 2 m/S 722 mmHg 60%
    13:00 +24°C° 0.3 mm 2 m/S 722 mmHg 59%
    14:00 +24°C° 0.3 mm 2 m/S 721 mmHg 59%
    15:00 +24°C° 0.3 mm 2 m/S 721 mmHg 60%
    16:00 +24°C° 0.3 mm 2 m/S 721 mmHg 61%
    17:00 +23°C° 0.5 mm 2 m/S 720 mmHg 68%
    18:00 +20°C° 0.5 mm 2 m/S 720 mmHg 76%
    19:00 +18°C° 0.5 mm 2 m/S 720 mmHg 84%
    20:00 +18°C° 0 mm 2 m/S 720 mmHg 86%
    21:00 +17°C° 0 mm 2 m/S 720 mmHg 87%
    22:00 +16°C° 0 mm 2 m/S 720 mmHg 89%
    23:00 +16°C° 0 mm 2 m/S 720 mmHg 89%

    Morgen, 27 Mai, Montag

    Zeit Temperatur Niederschläge Wind Luftdruck Luftfeuchtigkeit
    00:00 +15°C° 0 mm 2 m/S 720 mmHg 89%
    01:00 +15°C° 0 mm 2 m/S 720 mmHg 89%
    02:00 +15°C° 0 mm 2 m/S 720 mmHg 88%
    03:00 +15°C° 0 mm 2 m/S 720 mmHg 87%
    04:00 +15°C° 0 mm 2 m/S 719 mmHg 86%
    05:00 +15°C° 0.4 mm 1 m/S 720 mmHg 87%
    06:00 +15°C° 0.4 mm 1 m/S 720 mmHg 88%
    07:00 +15°C° 0.4 mm 1 m/S 720 mmHg 90%
    08:00 +17°C° 0 mm 2 m/S 720 mmHg 80%
    09:00 +19°C° 0 mm 3 m/S 720 mmHg 70%
    10:00 +21°C° 0 mm 3 m/S 720 mmHg 61%
    11:00 +22°C° 0 mm 4 m/S 720 mmHg 58%
    12:00 +23°C° 0 mm 4 m/S 719 mmHg 56%
    13:00 +25°C° 0 mm 4 m/S 719 mmHg 54%
    14:00 +22°C° 0.3 mm 4 m/S 719 mmHg 64%
    15:00 +20°C° 0.3 mm 4 m/S 718 mmHg 74%
    16:00 +18°C° 0.3 mm 4 m/S 718 mmHg 84%
    17:00 +18°C° 0.1 mm 4 m/S 718 mmHg 85%
    18:00 +17°C° 0.1 mm 3 m/S 717 mmHg 85%
    19:00 +17°C° 0.1 mm 3 m/S 717 mmHg 86%
    20:00 +16°C° 0.1 mm 3 m/S 717 mmHg 88%
    21:00 +14°C° 0.1 mm 3 m/S 717 mmHg 89%
    22:00 +14°C° 0.1 mm 3 m/S 717 mmHg 91%
    23:00 +13°C° 0 mm 3 m/S 716 mmHg 93%

    übermorgen, 28 Mai, Dienstag

    Zeit Temperatur Niederschläge Wind Luftdruck Luftfeuchtigkeit
    00:00 +12°C° 0 mm 3 m/S 716 mmHg 94%
    01:00 +12°C° 0 mm 3 m/S 716 mmHg 96%
    02:00 +12°C° 0 mm 3 m/S 715 mmHg 96%
    03:00 +12°C° 0 mm 3 m/S 715 mmHg 96%
    04:00 +12°C° 0 mm 2 m/S 715 mmHg 96%
    05:00 +13°C° 0 mm 3 m/S 715 mmHg 91%
    06:00 +14°C° 0 mm 3 m/S 715 mmHg 85%
    07:00 +17°C° 0 mm 3 m/S 715 mmHg 80%
    08:00 +18°C° 0 mm 3 m/S 715 mmHg 74%
    09:00 +20°C° 0 mm 3 m/S 714 mmHg 67%
    10:00 +21°C° 0 mm 3 m/S 714 mmHg 61%
    11:00 +21°C° 0.9 mm 2 m/S 714 mmHg 63%
    12:00 +21°C° 0.9 mm 2 m/S 714 mmHg 66%
    13:00 +23°C° 0.9 mm 1 m/S 714 mmHg 68%
    14:00 +21°C° 2.3 mm 2 m/S 714 mmHg 74%
    15:00 +19°C° 2.3 mm 2 m/S 713 mmHg 79%
    16:00 +18°C° 2.3 mm 3 m/S 713 mmHg 85%
    17:00 +17°C° 0.4 mm 3 m/S 713 mmHg 86%
    18:00 +16°C° 0.4 mm 3 m/S 714 mmHg 87%
    19:00 +13°C° 0.4 mm 4 m/S 714 mmHg 87%
    20:00 +13°C° 0.3 mm 4 m/S 714 mmHg 87%
    21:00 +12°C° 0.3 mm 3 m/S 714 mmHg 87%
    22:00 +12°C° 0.3 mm 3 m/S 715 mmHg 87%
    23:00 +12°C° 1.4 mm 3 m/S 715 mmHg 89%

    29 Mai, Mittwoch

    Zeit Temperatur Niederschläge Wind Luftdruck Luftfeuchtigkeit
    00:00 +11°C° 1.4 mm 3 m/S 715 mmHg 91%
    01:00 +11°C° 1.4 mm 3 m/S 715 mmHg 93%
    02:00 +11°C° 0.6 mm 3 m/S 716 mmHg 93%
    03:00 +10°C° 0.6 mm 3 m/S 716 mmHg 93%
    04:00 +10°C° 0.6 mm 4 m/S 716 mmHg 92%
    05:00 +10°C° 1 mm 4 m/S 716 mmHg 92%
    06:00 +10°C° 1 mm 4 m/S 717 mmHg 93%
    07:00 +9°C° 1 mm 3 m/S 717 mmHg 93%
    08:00 +10°C° 0.4 mm 3 m/S 718 mmHg 92%
    09:00 +10°C° 0.4 mm 4 m/S 718 mmHg 90%
    10:00 +10°C° 0.4 mm 4 m/S 719 mmHg 89%
    11:00 +11°C° 0 mm 4 m/S 719 mmHg 83%
    12:00 +12°C° 0 mm 4 m/S 719 mmHg 78%
    13:00 +13°C° 0 mm 5 m/S 720 mmHg 72%
    14:00 +14°C° 0 mm 5 m/S 720 mmHg 69%
    15:00 +14°C° 0 mm 5 m/S 720 mmHg 65%
    16:00 +15°C° 0 mm 5 m/S 720 mmHg 61%
    17:00 +14°C° 0 mm 4 m/S 720 mmHg 66%
    18:00 +13°C° 0 mm 4 m/S 721 mmHg 70%
    19:00 +12°C° 0 mm 3 m/S 721 mmHg 74%
    20:00 +12°C° 0 mm 3 m/S 721 mmHg 75%
    21:00 +11°C° 0 mm 3 m/S 722 mmHg 75%
    22:00 +11°C° 0 mm 3 m/S 723 mmHg 76%
    23:00 +10°C° 0 mm 3 m/S 723 mmHg 77%

    30 Mai, Donnerstag

    Zeit Temperatur Niederschläge Wind Luftdruck Luftfeuchtigkeit
    00:00 +10°C° 0 mm 3 m/S 723 mmHg 78%
    01:00 +10°C° 0 mm 3 m/S 724 mmHg 79%
    02:00 +9°C° 0 mm 3 m/S 724 mmHg 80%
    03:00 +9°C° 0 mm 3 m/S 724 mmHg 81%
    04:00 +9°C° 0 mm 3 m/S 724 mmHg 82%
    05:00 +10°C° 0 mm 3 m/S 725 mmHg 77%
    06:00 +12°C° 0 mm 4 m/S 726 mmHg 71%
    07:00 +13°C° 0 mm 5 m/S 726 mmHg 65%
    08:00 +14°C° 0 mm 5 m/S 726 mmHg 60%
    09:00 +15°C° 0 mm 5 m/S 727 mmHg 55%
    10:00 +16°C° 0 mm 5 m/S 727 mmHg 50%
    11:00 +17°C° 0 mm 5 m/S 727 mmHg 48%
    12:00 +19°C° 0 mm 5 m/S 727 mmHg 46%
    13:00 +20°C° 0 mm 4 m/S 727 mmHg 44%
    14:00 +20°C° 0 mm 4 m/S 727 mmHg 47%
    15:00 +19°C° 0 mm 3 m/S 727 mmHg 49%
    16:00 +19°C° 0 mm 3 m/S 726 mmHg 52%
    17:00 +18°C° 0.2 mm 2 m/S 726 mmHg 60%
    18:00 +16°C° 0.2 mm 2 m/S 727 mmHg 68%
    19:00 +15°C° 0.2 mm 1 m/S 727 mmHg 76%
    20:00 +14°C° 0 mm 1 m/S 727 mmHg 78%
    21:00 +13°C° 0 mm 1 m/S 727 mmHg 80%
    22:00 +11°C° 0 mm 1 m/S 728 mmHg 82%
    23:00 +11°C° 0 mm 1 m/S 728 mmHg 82%

    31 Mai, Freitag

    Zeit Temperatur Niederschläge Wind Luftdruck Luftfeuchtigkeit
    00:00 +10°C° 0 mm 2 m/S 728 mmHg 81%
    01:00 +9°C° 0 mm 2 m/S 728 mmHg 81%
    02:00 +9°C° 0 mm 2 m/S 728 mmHg 80%
    03:00 +9°C° 0 mm 2 m/S 728 mmHg 79%
    04:00 +10°C° 0 mm 1 m/S 728 mmHg 78%
    05:00 +12°C° 0.1 mm 1 m/S 728 mmHg 78%
    06:00 +13°C° 0.1 mm 1 m/S 728 mmHg 77%
    07:00 +14°C° 0.1 mm 1 m/S 728 mmHg 76%
    08:00 +18°C° 0 mm 1 m/S 728 mmHg 67%
    09:00 +20°C° 0 mm 1 m/S 729 mmHg 58%
    10:00 +21°C° 0 mm 2 m/S 729 mmHg 49%
    11:00 +21°C° 0.3 mm 2 m/S 728 mmHg 54%
    12:00 +21°C° 0.3 mm 3 m/S 728 mmHg 58%
    13:00 +20°C° 0.3 mm 3 m/S 728 mmHg 63%
    14:00 +21°C° 0.1 mm 4 m/S 728 mmHg 60%
    15:00 +21°C° 0.1 mm 4 m/S 728 mmHg 57%
    16:00 +21°C° 0.1 mm 5 m/S 728 mmHg 54%
    17:00 +20°C° 0 mm 4 m/S 728 mmHg 61%
    18:00 +18°C° 0 mm 4 m/S 728 mmHg 67%
    19:00 +17°C° 0 mm 3 m/S 729 mmHg 74%
    20:00 +16°C° 0 mm 3 m/S 729 mmHg 77%
    21:00 +14°C° 0 mm 3 m/S 729 mmHg 80%
    22:00 +13°C° 0 mm 3 m/S 729 mmHg 84%
    23:00 +12°C° 0 mm 3 m/S 730 mmHg 86%
    Mehr zeigen